User: anonymous   Login
Location: Caltech
(34.1382°N, 118.1253°W)
Time: 04:33:22
(UTC-07:00)
Language:

Cosmos 1937 Rocket - Orbit

View from above orbital plane
View from above orbital plane
View from above satellite
View from above satellite

Ground track
Ground track

The orbit data is extracted from the following two-line orbital elements,

1 19039U 88029B   17082.56501313 +.00000144 +00000-0 +55761-4 0  9998
2 19039 074.0461 097.0990 0024985 290.2693 213.7426 14.38352818518258
Epoch (UTC): 23 March 2017 13:33:37
Eccentricity: 0.0024985
inclination: 74.0461°
perigee height: 746 km
apogee height: 782 km
right ascension of ascending node: 97.0990°
argument of perigee: 290.2693°
revolutions per day: 14.38352818
mean anomaly at epoch: 213.7426°
orbit number at epoch: 51825

The dashed part of the orbit path shows where the satellite is in the earth's shadow,  

DLR